Retour au catalogue

FREGAT R/B

ActifPO
NORAD 100142·ROCKET BODY·🇷🇺 Russia

Lancé Jul 19, 2026 depuis Plesetsk Cosmodrome

Loading…

Prochains Passages (prochaines 24 heures)

TLE

FraisSource: Space-Track

Époque: Sep 14, 2026, 13:18 UTC

1 A0142U 26165S   26257.55466902  .00456521  10259-3  49588-3 0  9996
2 A0142  82.2808 166.0550 0017090 188.5319 171.5675 16.09544806  9040

Suivez FREGAT R/B en temps réel avec AllMySat

Download on the App Store